Location: Newark
(44.4156°N, 12.1972°E)
Time: 02:07:08
(UTC+00:00)

STARLINK-1095 - Pass Details

Date: 29 January 2020
Orbit: 348 x 351 km, 53.0° (Epoch: 17 February)

Event Time Altitude Azimuth Distance (km) Brightness Sun altitude
Rises 17:40:10 0° 306° (NW) 2,170 7.4 -15.2°
Reaches altitude 10° 17:42:15 10° 314° (NW) 1,325 6.1 -15.6°
Maximum altitude 17:45:04 40° 27° (NNE) 536 3.3 -16.1°
Enters shadow 17:45:11 40° 34° (NE) 538 3.2 -16.1°
